Starlink 5849

operational
NORAD ID: 55924 Int'l Des: 2023-037 Owner: SPXS Country: US Constellation: starlink
LEOCIRCULAR

About Starlink 5849

Description loading...

Live Position

Loading 3D Globe...

Upcoming Passes

Altitude History

Altitude vs Time

uPlot chart will show altitude changes over time

Two-Line Element Set

1 55924U 23037L 25338.67475922 .00003907 00000-0 33478-3 0 9990
2 55924 69.9986 164.1904 0002939 262.0165 98.0660 14.98358145149746
Epoch: Dec 4, 2025 • Age: 11 hours

Current Status

Altitude 590.7 km
Velocity 7.56 km/s
Sub-Earth Point -54.00°S, 11.79°E
Launch Date Mar 17, 2023
Age 2.7 years
Type internet

Technical Details

Classification Payload
Mass 305.00 kg
Dry Mass 290.00 kg
Total Mass 305.00 kg
Length 0.20 m
Diameter 2.80 m
Span 9.00 m
Shape Box + pan
Manufacturer SPXS
Bus Type Starlink
Phase Status In Orbit
Owner/State SPXS/US

Large Constellations

Loading constellations...